COSMOS 2023 (GLONASS)

Satellite information

Favourite Embed

Satellite Type and Status

PAYLOADIN ORBIT

Key statistics

Satellite COSMOS 2023 (GLONASS) at a glance.

Uptime

13240

Days in orbit

Revolutions

≈ 2.1

Per day

Orbit

MEO

Medium Earth Orbit

Inclination

65.1

Latest

Satellite identification and parameters

Extended collection of information and parameters for COSMOS 2023 (GLONASS).

Object identification

Identified? True

Debris? False

Object name: COSMOS 2023 (GLONASS)

International designator: 1989-039B

Object number (NORAD): 20025

Object ID (CCSDS): 20025

Country: COMMONWEALTH OF INDEPENDENT STATES (CIS)

Current information (Y/N): Y

RCS size: LARGE

Orbital parameters

Period: 675.726 minutes

Inclination: 65.1352 deg

SMA: 25507.847 km

Apoapsis: 19181.776 km

Periapsis: 19077.647 km

RAAN: 321.226 deg

Eccentricy: 0.00204112

Argument of periapsis: 200.5993 deg

Mean anomaly: 162.3486 deg

Mean motion: 2.13104227 rev/day

Mean motion (dot): -0.00000071 rev/day2

B* drag term: 0.0 1/REarth

Two-line elements (TLE)

Creation date: Aug. 29, 2025, 2:15 a.m.

Reference frame: TEME

Reference center: EARTH

Epoch: Aug. 28, 2025, 7:46 p.m. UTC

TLE line 0: 0 COSMOS 2023 (GLONASS)

TLE line 1: 1 20025U 89039B 25240.82405071 -.00000071 00000-0 00000-0 0 9997

TLE line 2: 2 20025 65.1352 321.2260 0020411 200.5993 162.3486 2.13104227282032

Live tracking on map

Real-time ground track for satellite COSMOS 2023 (GLONASS).

In-orbit conjunctions

A list of the most updated potential collisions computed for object COSMOS 2023 (GLONASS).

Target Orbit TCA Probability of collision Miss distance Type
SL-12 R/B(2) MEO 2024-09-16 04:51:36 TBA 3110.0 (m) ROCKET BODY

Associated space launch

GLONASS navigation satellites

COSMOS 2023 (GLONASS) was lifted into orbit during the mission ‘Proton | Uragan 34 & 35’, on board a Proton space rocket.

The launch took place on May 31, 1989, 8:31 a.m. from 200/40.

For more information about the launch, click the button.

Launch to space Proton | Uragan 34 & 35
Proton | Uragan 34 & 35

Agency: N/A

Status: Launch Successful

Launch date: May 31, 1989, 8:31 a.m. UTC

Rocket: Proton

Launch pad: 200/40

Location: Baikonur Cosmodrome, Republic of Kazakhstan

...

Latest news about this satellite

There are no fresh news available about this satellite. Check back as we update our databases every day.


Newsletter sign-up

Weekly statistics, charts and insights to help you stay on top of the space industry.